Wind_Speed
22 22 23 23 23 23 24 24 24 23 25 25 25 26 26 27 27 27 27 28 28 28 28 28 28 29 30 32 33 34 35 35 36 37 38 39 39 40 42 43 44 44 45 45
23 22 23 23 23 23 23 23 24 24 24 24 25 25 25 26 26 26 26 27 28 28 28 28 28 29 30 31 31 32 32 34 34 34 35 37 37 39 40 41 41 43 44 44
22 22 23 24 21 21 22 23 23 23 23 23 23 24 24 25 25 25 25 26 27 27 28 28 28 29 29 29 29 30 31 31 31 31 33 34 35 36 37 37 38 39 39 39
21 21 23 22 21 21 22 23 23 23 23 24 24 24 24 24 24 24 24 25 26 27 27 27 27 27 28 28 28 29 28 29 29 30 30 30 31 33 33 34 34 34 34 34
21 22 22 21 21 21 22 22 22 23 23 24 24 24 23 24 24 23 23 24 25 26 26 26 26 27 27 27 27 27 26 26 26 27 27 28 28 29 29 29 30 30 30 30
22 23 23 21 20 21 22 22 22 23 23 24 23 24 23 24 24 24 24 25 25 25 25 25 26 26 25 25 25 25 25 25 25 25 25 26 27 27 27 27 27 26 27 27
21 22 22 20 19 20 21 21 21 22 23 23 23 23 23 24 24 24 24 24 24 24 24 24 25 24 24 24 24 25 24 24 24 24 25 25 25 25 25 25 25 25 24 24
20 21 20 20 20 20 21 21 21 21 22 23 23 23 22 23 23 23 23 23 23 23 23 23 23 22 23 23 23 24 24 24 24 23 23 24 24 24 23 23 23 23 23 23
20 20 21 20 20 20 21 21 21 22 22 22 23 23 22 22 22 22 22 22 22 22 22 22 22 21 22 22 22 22 23 23 23 23 23 23 23 23 23 22 22 22 22 22
20 20 21 21 20 20 20 21 21 22 22 22 22 22 21 21 21 21 21 21 21 21 21 21 21 21 21 21 21 21 21 22 22 22 22 22 22 22 22 22 21 20 21 21
20 21 21 21 22 21 21 21 21 21 21 20 20 20 20 20 20 20 21 21 21 21 21 21 21 20 20 20 20 20 21 21 21 21 21 21 21 20 20 20 20 20 20 20
21 21 21 21 21 21 21 21 21 20 19 19 19 19 19 19 19 20 21 21 21 21 21 20 20 20 20 20 20 20 20 20 20 20 20 21 21 20 20 20 20 19 19 19
20 20 20 20 20 21 21 20 20 19 19 19 18 18 18 18 19 20 20 20 20 20 20 20 20 20 20 20 20 20 20 20 20 21 21 21 21 20 20 20 19 19 19 18
19 19 19 19 19 20 19 19 18 18 19 19 19 18 18 18 18 19 19 19 19 18 19 19 19 19 19 20 20 20 20 20 20 20 20 20 20 20 19 19 19 18 18 18
19 19 19 19 19 19 18 18 18 18 18 18 17 17 17 18 19 19 19 19 19 19 19 18 18 18 18 19 19 18 18 18 18 18 18 18 18 18 18 17 17 17 17 17
18 18 18 17 17 17 17 17 17 17 17 17 17 17 18 18 19 19 18 18 18 18 18 17 17 17 17 17 17 16 16 15 16 16 17 17 16 16 16 16 16 16 16 16
16 16 16 16 15 15 15 15 15 15 16 16 16 17 17 18 17 17 16 16 16 16 16 16 16 16 16 15 15 15 15 15 15 15 15 16 16 16 16 16 16 16 16 15
16 15 15 15 14 13 13 13 13 14 14 15 15 16 16 16 16 15 14 14 14 14 14 15 15 15 15 15 14 14 15 15 15 16 15 15 15 15 16 16 15 15 15 15
15 15 14 13 12 12 11 11 11 12 13 13 13 14 14 14 14 13 13 14 14 14 14 15 15 15 15 14 14 14 15 15 15 15 14 15 15 15 14 14 14 14 14 14
13 12 11 11 11 11 10 10 11 12 12 13 14 14 14 13 14 14 14 14 14 15 15 14 14 15 15 15 15 15 15 15 14 14 14 14 14 13 13 13 13 13 13 13
12 11 10 10 10 11 11 11 11 12 12 13 13 13 13 13 13 13 14 14 14 14 14 14 14 14 14 14 14 14 14 13 13 13 13 12 12 12 12 12 12 12 12 12
12 12 11 11 11 11 11 11 12 12 12 12 12 12 12 12 12 13 13 14 14 14 14 14 14 13 13 14 14 14 13 13 13 13 13 12 12 11 11 11 11 12 12 12
11 11 12 12 12 11 11 11 12 12 12 12 11 11 12 12 12 13 13 13 13 13 13 13 13 13 13 14 14 14 13 13 13 13 13 12 12 12 12 12 12 13 13 13
11 11 11 11 12 12 12 12 12 12 12 12 11 11 12 12 13 13 14 14 13 13 13 13 13 13 13 13 14 14 14 13 13 13 12 12 12 12 13 13 13 13 13 13
11 11 11 12 12 12 12 13 12 12 12 12 12 12 13 14 14 14 14 14 13 13 13 13 13 13 13 13 14 14 13 13 13 13 13 14 14 14 14 15 15 14 14 13
11 12 12 12 12 13 13 14 14 13 13 12 13 13 14 14 14 14 13 13 12 13 13 13 14 14 14 14 13 13 13 13 14 14 14 15 15 15 15 15 14 14 13 13
12 12 13 13 14 14 14 14 13 13 13 14 14 14 14 13 13 13 13 12 12 13 13 14 14 14 14 14 13 13 13 14 14 15 15 15 15 15 14 14 14 13 13 13
Wind_Direction
277 275 269 267 268 269 269 271 272 274 276 277 276 276 276 275 274 273 271 272 272 272 273 273 272 272 271 271 271 270 269 270 271 270 269 269 270 271 271 271 270 270 269 269
277 276 271 269 270 271 272 274 274 274 276 278 277 276 277 277 276 274 273 273 273 274 275 275 274 274 274 274 274 273 273 273 274 273 272 271 271 272 272 272 272 271 270 269
278 276 274 272 273 273 273 273 274 275 277 277 275 274 275 276 276 275 274 275 275 276 276 278 278 277 277 276 275 276 276 276 275 275 275 273 272 273 274 274 273 272 271 269
278 276 275 275 273 274 275 273 274 275 276 276 275 275 275 276 276 276 275 277 277 277 278 280 280 278 277 276 277 278 278 278 276 278 277 276 276 277 277 276 275 273 272 270
277 278 277 276 277 276 275 273 273 273 275 276 275 274 274 275 276 277 278 279 280 280 280 280 281 281 280 277 277 277 278 280 281 280 279 279 280 280 280 279 277 275 273 272
276 277 278 281 279 276 276 275 273 273 275 276 275 274 274 275 275 276 277 279 280 281 281 281 281 281 280 278 276 276 279 280 281 281 282 281 281 281 281 280 277 275 275 273
277 279 280 281 280 277 277 279 277 276 276 276 275 275 275 274 275 277 278 280 280 281 281 281 280 280 280 279 278 277 279 279 279 281 283 283 283 283 282 280 278 276 275 275
279 279 282 282 280 277 278 280 280 279 278 276 275 275 275 276 277 278 280 281 282 282 282 282 280 280 281 280 279 277 277 279 279 280 283 285 285 285 283 281 281 279 278 277
280 281 281 282 281 278 278 281 282 281 281 278 276 275 274 276 278 278 279 280 281 282 282 283 282 282 281 281 281 281 279 279 280 280 281 284 285 285 283 281 281 279 278 278
280 280 279 277 278 279 278 279 281 281 281 281 280 278 275 275 276 278 279 280 280 280 282 284 284 283 282 281 282 282 282 281 281 281 282 284 285 284 283 282 280 279 278 278
283 281 278 276 276 277 278 280 281 281 281 280 282 280 276 274 276 277 277 278 279 280 281 282 282 282 282 283 283 282 282 282 282 281 282 283 283 282 282 281 280 279 280 281
285 283 279 277 276 277 278 280 280 280 280 280 281 280 278 275 276 277 276 277 279 281 281 280 279 280 281 283 283 283 283 282 282 282 283 283 282 281 281 280 279 279 280 281
286 283 279 278 277 277 277 278 277 277 277 278 277 279 279 277 278 277 276 278 280 281 282 280 278 279 281 283 282 283 283 282 281 282 282 283 282 281 280 279 279 280 281 279
284 282 279 278 278 278 277 276 277 277 277 277 278 279 278 279 280 281 281 280 281 281 282 281 280 281 282 283 283 282 282 283 283 282 281 282 281 280 278 277 277 279 279 278
284 282 278 277 277 277 277 277 277 278 278 277 277 280 280 281 281 282 282 282 282 282 282 281 281 282 283 284 285 284 283 283 283 285 284 283 281 279 278 277 278 279 279 278
285 283 279 278 278 276 278 279 279 278 278 277 278 281 284 284 284 282 282 282 282 283 282 281 280 282 283 284 284 284 283 284 285 287 286 284 282 280 279 278 279 279 280 279
286 283 279 279 278 277 278 279 280 280 281 281 283 284 286 287 285 283 283 283 283 282 281 280 279 280 282 285 285 284 284 285 286 288 288 286 282 280 280 281 281 281 282 281
285 284 280 279 278 278 278 279 282 285 286 285 285 286 286 285 284 282 280 280 282 283 284 282 280 280 281 282 283 284 285 286 287 289 288 286 284 281 280 280 280 281 280 279
285 286 282 278 277 276 276 280 285 289 289 289 289 289 287 283 282 280 279 279 282 285 285 284 282 281 281 281 281 282 285 287 289 290 289 288 287 283 281 281 281 282 281 279
286 285 281 275 275 274 276 283 289 293 293 291 291 291 289 287 284 281 281 282 283 284 283 282 281 281 282 282 283 284 284 285 286 288 289 289 288 285 282 281 281 281 280 280
284 282 279 277 279 281 282 285 291 292 293 293 294 292 291 289 287 285 283 283 283 283 284 284 284 282 281 281 281 282 283 284 285 286 287 288 287 286 285 283 281 280 281 281
281 279 278 279 282 286 286 288 291 291 291 293 295 295 293 291 290 290 287 283 282 284 284 284 284 282 280 280 279 279 281 283 284 284 285 286 285 284 284 284 282 282 282 282
282 279 278 279 283 286 288 289 292 292 291 292 294 295 294 293 292 294 294 289 287 286 285 285 285 285 283 282 281 280 281 283 284 284 285 284 282 281 282 284 284 285 284 282
282 279 279 280 283 286 288 291 292 291 291 292 294 295 294 294 294 294 294 291 288 286 286 286 286 288 287 285 284 283 281 282 283 284 285 285 284 283 283 284 284 284 283 281
281 281 283 284 284 285 289 291 290 290 290 290 291 293 293 293 293 293 293 291 287 286 286 287 287 287 287 287 285 284 282 282 282 282 283 283 283 283 284 284 284 284 282 277
280 282 286 286 286 288 291 291 291 290 288 289 292 294 295 294 292 291 291 290 287 286 287 289 289 288 288 287 284 280 280 281 281 282 281 281 282 283 284 282 282 281 278 273
283 286 286 287 289 290 290 290 290 289 289 290 291 293 293 294 293 292 292 291 290 289 288 289 289 288 288 286 282 279 278 279 281 283 283 282 282 282 283 281 280 278 275 272
Height
5593 5592 5592 5592 5592 5592 5591 5591 5591 5591 5591 5591 5590 5589 5588 5588 5587 5587 5586 5586 5585 5584 5583 5582 5580 5579 5578 5577 5576 5575 5574 5574 5573 5572 5572 5571 5570 5569 5568 5567 5567 5566 5566 5565
5586 5586 5585 5584 5585 5585 5585 5584 5583 5583 5584 5584 5582 5581 5581 5580 5579 5578 5578 5577 5576 5575 5574 5573 5572 5570 5569 5568 5566 5565 5564 5564 5563 5562 5561 5560 5559 5558 5556 5555 5554 5554 5553 5552
5579 5579 5577 5578 5580 5579 5578 5577 5577 5576 5578 5576 5575 5574 5573 5572 5571 5570 5570 5569 5568 5567 5566 5565 5563 5562 5560 5559 5558 5557 5555 5554 5553 5552 5550 5549 5548 5547 5545 5544 5543 5542 5541 5541
5572 5572 5571 5574 5572 5572 5571 5571 5570 5570 5570 5569 5568 5567 5566 5565 5564 5563 5562 5561 5560 5559 5558 5556 5555 5553 5552 5550 5549 5548 5547 5546 5544 5543 5541 5539 5538 5536 5535 5534 5533 5532 5531 5530
5565 5564 5564 5566 5566 5564 5563 5563 5563 5562 5562 5561 5560 5560 5560 5558 5557 5555 5554 5553 5552 5551 5549 5548 5547 5545 5544 5542 5541 5540 5539 5538 5536 5534 5533 5531 5529 5528 5526 5525 5524 5523 5522 5521
5559 5557 5557 5560 5559 5557 5557 5556 5557 5555 5555 5554 5553 5553 5553 5551 5550 5548 5547 5546 5545 5543 5541 5540 5539 5537 5536 5534 5533 5533 5531 5530 5529 5527 5525 5524 5522 5520 5519 5517 5516 5514 5513 5512
5553 5551 5550 5552 5551 5551 5551 5551 5549 5547 5547 5546 5545 5545 5545 5543 5542 5541 5539 5538 5537 5535 5534 5532 5531 5530 5528 5527 5526 5525 5524 5523 5521 5520 5518 5516 5515 5513 5511 5509 5508 5507 5506 5505
5546 5545 5547 5546 5544 5544 5544 5542 5541 5540 5539 5538 5538 5537 5536 5535 5534 5533 5532 5531 5529 5528 5527 5525 5524 5522 5521 5520 5519 5518 5517 5516 5515 5513 5512 5510 5508 5506 5504 5503 5501 5500 5499 5498
5541 5542 5540 5538 5538 5537 5536 5535 5534 5533 5532 5531 5530 5529 5529 5528 5527 5526 5524 5524 5522 5521 5520 5518 5517 5516 5515 5513 5512 5511 5510 5509 5507 5506 5505 5503 5502 5500 5498 5496 5495 5494 5493 5492
5534 5534 5533 5532 5531 5530 5529 5528 5527 5526 5524 5523 5522 5522 5521 5520 5519 5518 5518 5517 5516 5514 5513 5512 5510 5509 5508 5507 5505 5504 5503 5502 5501 5499 5498 5497 5495 5493 5492 5491 5489 5488 5487 5486
5527 5527 5526 5525 5524 5523 5522 5521 5520 5519 5518 5516 5516 5515 5514 5513 5512 5511 5510 5510 5509 5508 5507 5505 5504 5503 5501 5500 5499 5498 5497 5496 5494 5493 5491 5490 5489 5488 5486 5485 5484 5483 5482 5481
5520 5519 5518 5518 5517 5516 5515 5514 5513 5512 5511 5510 5510 5509 5508 5507 5506 5505 5504 5503 5502 5501 5500 5499 5497 5496 5495 5494 5493 5492 5490 5489 5488 5487 5485 5484 5483 5482 5480 5479 5478 5477 5476 5475
5513 5512 5511 5510 5510 5509 5508 5508 5507 5506 5505 5505 5504 5503 5502 5501 5500 5498 5497 5496 5495 5494 5493 5492 5491 5490 5489 5488 5486 5485 5484 5483 5482 5481 5480 5478 5477 5476 5475 5474 5472 5471 5470 5469
5507 5506 5504 5504 5504 5503 5502 5501 5500 5500 5499 5499 5498 5497 5496 5495 5494 5492 5491 5490 5489 5488 5487 5485 5484 5484 5483 5481 5480 5479 5478 5477 5476 5475 5473 5472 5471 5470 5469 5468 5467 5466 5465 5464
5501 5500 5499 5498 5497 5496 5496 5495 5494 5494 5493 5493 5492 5491 5490 5489 5488 5486 5485 5484 5483 5482 5481 5480 5479 5478 5477 5476 5474 5473 5472 5471 5470 5468 5467 5466 5465 5464 5463 5462 5461 5461 5460 5459
5495 5493 5492 5492 5491 5491 5490 5490 5489 5488 5488 5487 5486 5485 5484 5483 5482 5481 5479 5478 5477 5476 5475 5474 5473 5472 5471 5470 5469 5468 5467 5465 5464 5463 5462 5461 5460 5459 5458 5457 5456 5455 5454 5454
5489 5488 5487 5486 5486 5485 5485 5484 5484 5483 5482 5481 5481 5480 5479 5477 5476 5475 5474 5473 5472 5471 5470 5469 5468 5467 5466 5465 5464 5463 5462 5460 5459 5458 5457 5455 5454 5453 5453 5452 5451 5450 5449 5448
5484 5483 5482 5481 5481 5480 5480 5480 5479 5478 5477 5476 5475 5474 5473 5472 5471 5470 5469 5468 5467 5466 5465 5464 5463 5462 5461 5460 5459 5458 5457 5456 5454 5453 5452 5450 5449 5448 5447 5446 5446 5445 5444 5443
5479 5479 5478 5477 5476 5476 5475 5475 5475 5474 5473 5472 5471 5470 5468 5467 5466 5465 5464 5463 5462 5461 5460 5459 5458 5457 5456 5455 5454 5453 5452 5451 5450 5448 5447 5445 5444 5443 5442 5441 5441 5440 5439 5438
5475 5474 5474 5473 5473 5472 5472 5471 5471 5470 5468 5467 5466 5465 5464 5463 5462 5461 5460 5459 5458 5456 5455 5454 5453 5452 5451 5450 5449 5448 5447 5446 5445 5444 5442 5441 5440 5439 5438 5437 5436 5435 5435 5434
5471 5470 5470 5469 5469 5468 5468 5467 5466 5465 5464 5463 5462 5460 5459 5458 5457 5456 5455 5454 5453 5452 5451 5450 5449 5447 5446 5445 5444 5443 5442 5441 5440 5439 5438 5437 5436 5435 5434 5433 5432 5431 5430 5430
5467 5466 5466 5466 5465 5464 5464 5463 5462 5461 5460 5458 5457 5456 5455 5454 5453 5452 5450 5450 5448 5447 5446 5445 5444 5443 5441 5441 5440 5439 5438 5437 5436 5435 5434 5432 5431 5431 5430 5429 5428 5427 5426 5426
5463 5462 5462 5461 5461 5460 5460 5459 5458 5457 5456 5454 5453 5452 5451 5449 5448 5447 5446 5445 5443 5442 5441 5440 5439 5438 5437 5436 5435 5434 5433 5432 5431 5430 5429 5428 5427 5426 5426 5425 5424 5423 5422 5421
5459 5458 5458 5457 5457 5456 5455 5454 5454 5452 5451 5450 5449 5448 5446 5445 5444 5443 5441 5440 5439 5438 5437 5435 5434 5433 5432 5431 5430 5429 5428 5428 5427 5426 5425 5424 5423 5422 5421 5420 5419 5419 5418 5417
5455 5454 5454 5453 5452 5452 5451 5450 5449 5448 5447 5446 5445 5443 5442 5441 5439 5438 5436 5435 5434 5433 5432 5431 5430 5429 5427 5426 5425 5424 5424 5423 5422 5421 5420 5420 5419 5418 5417 5415 5414 5413 5413 5412
5451 5450 5450 5449 5448 5447 5446 5445 5444 5443 5442 5441 5440 5439 5437 5436 5434 5433 5432 5430 5429 5428 5427 5426 5425 5424 5423 5421 5420 5419 5419 5418 5417 5416 5416 5415 5414 5412 5411 5410 5409 5408 5407 5407
5447 5446 5445 5445 5444 5443 5442 5441 5440 5438 5438 5436 5435 5434 5432 5431 5429 5428 5427 5426 5424 5423 5422 5421 5420 5419 5417 5416 5415 5415 5414 5413 5412 5411 5410 5409 5408 5407 5405 5404 5403 5403 5402 5402